User: anonymous   Login
Location: Theydon Bois
(51.6750°N, 0.1050°E)
Time: 17:37:11
(UTC+01:00)
Language:

Cosmos 1939 Rocket - Orbit

View from above orbital plane
View from above orbital plane
View from above satellite
View from above satellite

Ground track
Ground track

The orbit data is extracted from the following two-line orbital elements,

1 19046U 88032B   18170.52219443  .00000698  00000-0  56290-4 0  9997
2 19046  97.4812 210.7373 0038563 164.2028 196.0410 15.02446064627798
Epoch (UTC): 19 June 2018 12:31:57
Eccentricity: 0.0038563
inclination: 97.4812°
perigee height: 532 km
apogee height: 586 km
right ascension of ascending node: 210.7373°
argument of perigee: 164.2028°
revolutions per day: 15.02446064
mean anomaly at epoch: 196.0410°
orbit number at epoch: 62779

The dashed part of the orbit path shows where the satellite is in the earth's shadow,  

DLR